TimeCST,TemperatureF,Dew PointF,Humidity,Sea Level PressureIn,VisibilityMPH,Wind Direction,Wind SpeedMPH,Gust SpeedMPH,PrecipitationIn,Events,Conditions,WindDirDegrees,DateUTC
12:14 AM,35.6,24.8,65,29.56,10.0,South,12.7,18.4,N/A,,Mostly Cloudy,190,2012-12-06 06:14:00
12:34 AM,35.6,26.6,70,29.55,10.0,SSW,13.8,21.9,N/A,,Overcast,200,2012-12-06 06:34:00
12:54 AM,35.6,26.6,70,29.54,10.0,SSW,11.5,18.4,N/A,,Mostly Cloudy,200,2012-12-06 06:54:00
1:14 AM,35.6,26.6,70,29.54,10.0,SSW,11.5,18.4,N/A,,Scattered Clouds,210,2012-12-06 07:14:00
1:34 AM,35.6,26.6,70,29.54,10.0,SSW,13.8,20.7,N/A,,Scattered Clouds,210,2012-12-06 07:34:00
1:55 AM,35.6,26.6,70,29.54,10.0,SSW,12.7,19.6,N/A,,Clear,210,2012-12-06 07:55:00
2:14 AM,35.6,26.6,70,29.54,10.0,SW,12.7,21.9,N/A,,Scattered Clouds,220,2012-12-06 08:14:00
2:34 AM,35.6,28.4,75,29.54,10.0,SW,15.0,20.7,N/A,,Mostly Cloudy,220,2012-12-06 08:34:00
2:55 AM,35.6,28.4,75,29.55,10.0,SW,10.4,20.7,N/A,,Scattered Clouds,230,2012-12-06 08:55:00
3:14 AM,35.6,28.4,75,29.55,10.0,WSW,11.5,19.6,N/A,,Mostly Cloudy,240,2012-12-06 09:14:00
3:34 AM,35.6,28.4,75,29.55,10.0,WSW,13.8,20.7,N/A,,Overcast,240,2012-12-06 09:34:00
3:54 AM,35.6,28.4,75,29.55,10.0,WSW,13.8,20.7,N/A,,Overcast,240,2012-12-06 09:54:00
4:14 AM,35.6,28.4,75,29.56,10.0,WSW,15.0,21.9,N/A,,Overcast,250,2012-12-06 10:14:00
4:34 AM,35.6,30.2,81,29.57,10.0,WSW,13.8,23.0,N/A,,Overcast,250,2012-12-06 10:34:00
4:54 AM,35.6,30.2,81,29.57,10.0,WSW,11.5,-,N/A,,Overcast,250,2012-12-06 10:54:00
5:14 AM,35.6,30.2,81,29.58,10.0,West,13.8,18.4,N/A,,Overcast,260,2012-12-06 11:14:00
5:34 AM,33.8,30.2,87,29.59,7.0,West,11.5,18.4,N/A,,Overcast,260,2012-12-06 11:34:00
5:54 AM,33.8,30.2,87,29.60,5.0,WSW,11.5,-,N/A,,Overcast,250,2012-12-06 11:54:00
6:14 AM,33.8,30.2,87,29.62,7.0,WNW,15.0,24.2,N/A,,Overcast,300,2012-12-06 12:14:00
6:34 AM,30.2,26.6,86,29.63,10.0,West,15.0,23.0,N/A,,Overcast,280,2012-12-06 12:34:00
6:54 AM,30.2,26.6,86,29.65,10.0,West,12.7,21.9,N/A,,Overcast,280,2012-12-06 12:54:00
7:14 AM,28.4,24.8,86,29.67,10.0,WNW,17.3,23.0,N/A,,Overcast,290,2012-12-06 13:14:00
7:34 AM,28.4,24.8,86,29.68,10.0,West,18.4,-,N/A,,Overcast,280,2012-12-06 13:34:00
7:54 AM,26.6,23.0,86,29.69,10.0,WNW,13.8,-,N/A,,Overcast,290,2012-12-06 13:54:00
8:14 AM,26.6,21.2,80,29.70,10.0,West,15.0,24.2,N/A,,Overcast,280,2012-12-06 14:14:00
8:34 AM,26.6,21.2,80,29.72,10.0,WNW,12.7,20.7,N/A,,Overcast,290,2012-12-06 14:34:00
8:54 AM,24.8,19.4,80,29.73,10.0,West,12.7,20.7,N/A,,Overcast,280,2012-12-06 14:54:00
9:14 AM,24.8,19.4,80,29.74,10.0,West,15.0,-,N/A,,Overcast,280,2012-12-06 15:14:00
9:34 AM,24.8,19.4,80,29.75,10.0,West,13.8,20.7,N/A,,Overcast,270,2012-12-06 15:34:00
9:54 AM,24.8,19.4,80,29.75,7.0,West,16.1,-,N/A,,Overcast,280,2012-12-06 15:54:00
10:14 AM,23.0,17.6,80,29.77,10.0,West,13.8,19.6,N/A,,Overcast,280,2012-12-06 16:14:00
10:34 AM,23.0,17.6,80,29.78,7.0,WNW,11.5,16.1,N/A,,Overcast,290,2012-12-06 16:34:00
10:54 AM,23.0,17.6,80,29.79,5.0,West,11.5,17.3,N/A,,Haze,270,2012-12-06 16:54:00
11:14 AM,21.2,17.6,86,29.80,7.0,West,16.1,-,N/A,,Overcast,280,2012-12-06 17:14:00
11:34 AM,21.2,17.6,86,29.80,10.0,West,11.5,17.3,N/A,,Overcast,260,2012-12-06 17:34:00
11:54 AM,21.2,15.8,80,29.80,10.0,West,12.7,17.3,N/A,,Overcast,280,2012-12-06 17:54:00
12:14 PM,21.2,15.8,80,29.81,10.0,West,11.5,18.4,N/A,,Overcast,280,2012-12-06 18:14:00
12:34 PM,21.2,15.8,80,29.81,10.0,WNW,11.5,-,N/A,Snow,Light Snow,290,2012-12-06 18:34:00
12:54 PM,21.2,14.0,74,29.82,10.0,WNW,11.5,18.4,N/A,,Overcast,290,2012-12-06 18:54:00
1:14 PM,21.2,14.0,74,29.82,10.0,WNW,11.5,21.9,N/A,,Overcast,290,2012-12-06 19:14:00
1:34 PM,21.2,14.0,74,29.83,10.0,West,12.7,18.4,N/A,,Overcast,270,2012-12-06 19:34:00
1:54 PM,21.2,14.0,74,29.83,10.0,WNW,11.5,18.4,N/A,,Overcast,290,2012-12-06 19:54:00
2:14 PM,21.2,15.8,80,29.83,10.0,West,10.4,17.3,N/A,,Overcast,270,2012-12-06 20:14:00
2:34 PM,21.2,15.8,80,29.83,10.0,West,12.7,18.4,N/A,,Overcast,270,2012-12-06 20:34:00
2:54 PM,21.2,15.8,80,29.85,10.0,West,8.1,16.1,N/A,,Overcast,270,2012-12-06 20:54:00
3:14 PM,21.2,15.8,80,29.86,10.0,West,11.5,17.3,N/A,,Overcast,260,2012-12-06 21:14:00
3:34 PM,21.2,15.8,80,29.85,10.0,West,9.2,18.4,N/A,,Overcast,270,2012-12-06 21:34:00
3:54 PM,21.2,15.8,80,29.85,10.0,West,8.1,19.6,N/A,,Overcast,260,2012-12-06 21:54:00
4:14 PM,21.2,15.8,80,29.86,10.0,West,9.2,-,N/A,,Overcast,260,2012-12-06 22:14:00
4:34 PM,21.2,15.8,80,29.86,10.0,WSW,12.7,16.1,N/A,,Overcast,250,2012-12-06 22:34:00
4:54 PM,21.2,15.8,80,29.87,10.0,WSW,16.1,21.9,N/A,,Overcast,250,2012-12-06 22:54:00
5:14 PM,21.2,14.0,74,29.88,10.0,West,15.0,23.0,N/A,,Overcast,270,2012-12-06 23:14:00
5:33 PM,21.2,14.0,74,29.87,10.0,West,13.8,-,N/A,,Overcast,260,2012-12-06 23:33:00
5:54 PM,19.4,12.2,74,29.88,10.0,West,10.4,16.1,N/A,,Overcast,270,2012-12-06 23:54:00
6:14 PM,19.4,12.2,74,29.88,10.0,West,11.5,16.1,N/A,,Overcast,270,2012-12-07 00:14:00
6:34 PM,19.4,12.2,74,29.88,10.0,West,12.7,20.7,N/A,,Overcast,270,2012-12-07 00:34:00
6:54 PM,19.4,12.2,74,29.89,10.0,West,11.5,-,N/A,,Overcast,280,2012-12-07 00:54:00
7:14 PM,19.4,12.2,74,29.89,10.0,West,9.2,19.6,N/A,,Overcast,270,2012-12-07 01:14:00
7:34 PM,19.4,12.2,74,29.89,10.0,West,10.4,18.4,N/A,,Overcast,280,2012-12-07 01:34:00
7:54 PM,19.4,12.2,74,29.89,10.0,West,11.5,-,N/A,,Overcast,280,2012-12-07 01:54:00
8:34 PM,19.4,14.0,80,29.90,10.0,West,10.4,16.1,N/A,Snow,Light Snow,280,2012-12-07 02:34:00
8:54 PM,21.2,14.0,74,29.90,10.0,West,8.1,-,N/A,,Overcast,280,2012-12-07 02:54:00
9:14 PM,21.2,14.0,74,29.91,10.0,West,4.6,-,N/A,,Overcast,270,2012-12-07 03:14:00
9:34 PM,21.2,14.0,74,29.91,10.0,West,4.6,-,N/A,,Overcast,270,2012-12-07 03:34:00
9:54 PM,21.2,14.0,74,29.91,10.0,WNW,5.8,-,N/A,Snow,Light Snow,290,2012-12-07 03:54:00
10:14 PM,21.2,15.8,80,29.91,5.0,WNW,4.6,-,N/A,Snow,Light Snow,290,2012-12-07 04:14:00
10:34 PM,21.2,15.8,80,29.91,4.0,WNW,4.6,-,N/A,Snow,Light Snow,300,2012-12-07 04:34:00
10:54 PM,19.4,15.8,86,29.93,4.0,West,5.8,-,N/A,Snow,Light Snow,280,2012-12-07 04:54:00
11:14 PM,19.4,15.8,86,29.93,5.0,NW,8.1,-,N/A,Snow,Light Snow,310,2012-12-07 05:14:00
11:34 PM,19.4,14.0,80,29.93,7.0,WNW,8.1,-,N/A,Snow,Light Snow,300,2012-12-07 05:34:00
11:54 PM,19.4,14.0,80,29.94,10.0,WNW,8.1,-,N/A,Snow,Light Snow,300,2012-12-07 05:54:00